Location: Hodgeman County Ambulance
(38.0844°N, 99.8949°W)
Time: 00:34:41
(UTC+00:00)

Cosmos 1484 Rocket - Pass Details

Date: 27 October 2020
Orbit: 504 x 560 km, 97.4° (Epoch: 04 December)

Event Time Altitude Azimuth Distance (km) Brightness Sun altitude
Rises 11:59:42 0° 358° (N) 2,691 6.2 -12.6°
Reaches altitude 10° 12:02:06 10° 344° (NNW) 1,784 5.2 -12.1°
Maximum altitude 12:05:14 24° 290° (WNW) 1,112 3.8 -11.5°
Drops below altitude 10° 12:08:18 10° 235° (SW) 1,747 5.0 -10.9°
Sets 12:10:39 0° 221° (SW) 2,620 6.0 -10.5°
